Location: Austin
(30.3000°N, 97.7500°W)
Time: 01:57:09
(UTC-05:00)

Cosmos 540 Rocket - Pass Details

Date: 11 June 2024
Orbit: 737 x 751 km, 74.1° (Epoch: 22 June)

Event Time Altitude Azimuth Distance (km) Brightness Sun altitude
Rises 22:16:06 0° 356° (N) 3,198 7.4 -19.0°
Reaches altitude 10° 22:18:45 10° 7° (N) 2,269 6.4 -19.4°
Maximum altitude 22:23:15 30° 69° (ENE) 1,314 4.5 -20.1°
Enters shadow 22:24:02 29° 86° (E) 1,352 4.4 -20.2°
